CZ-4C DEB, 43265

Orbit data source: Space-Track

CZ-4C DEB, 43265 is space debris in SSO originally from a launch on Sat, 31 Mar 2018 UTC launched from the Taiyaun Space Center, China (TSC). Debris objects in space refer to the collection of defunct objects orbiting the Earth. Examples of debris include non-operational satellites, rocket bodies, and fragments generated from explosions, collisions, or faulty payload assembly.

Loading next visibility...
Identifier
43265, 2018-031G
Orbit
SSO
Country
Flag of CNCN / PRC
Related business
Manufacturer
Unknown
Mission
Spacecraft
Bus & Motor
Unknown
Mass
Unknown
Launch date (UTC)
2018-03-31 (8 years ago)
Launch vehicle
Unknown
Launch site
Taiyaun Space Center, China (TSC)
Object type
Payload
Rocket body
Debris
Shape & HBR
Unknown shape, 2.1 m
Radar Cross Section
Large (>1 m²)

Expand to show TLE details & history
Last TLE update: 9 hours ago

TLE from 9 hours ago
0 CZ-4C DEB
1 43265U 18031G   26126.46441429  .00007067  00000-0  52616-3 0  9997
2 43265  97.7666 210.2301 0009354  51.8666 308.3401 15.03213987438176
Epoch: 2026-05-06T11:08Z
TLE epoch observation values (Epoch: 2026-05-06T11:08:45.394Z)
Latitude
-0.00001°
Longitude
178.71643°
Altitude
556.029 km
Speed
7.586 km/s
True Right ascension
14h 00m 55s
True Declination
0° 00' 00"
Sunlit
Object was in full shadow at epoch
Visualization orbit readout
Latitude
Unknown
Longitude
Unknown
Altitude
Unknown
Speed
Unknown
Apparent Right ascension
Unknown
Apparent Declination
Unknown
Sunlit
N/A
Visualization observer readout
Local Sidereal Time
04:09:02
Azimuth
Unknown
Elevation
Unknown
Doppler factor
Unknown
Orbital elements
Apogee altitude
560.482 km
Perigee altitude
547.513 km
Semi-major axis
6,932.134 km
Eccentricity
0.00094
Inclination
97.7666°
RAAN
210.2301°
Arg. of periapsis
51.8666°
True anomaly
308.25597°
Mean anomaly
308.3401°
Eccentric anomaly
308.29804°
Mean motion
3.76048 °/min
Orbital period
95.73 mins
BSTAR
0.00052616
Loading maneuver chart data...
Computing Atmospheric mass density...
Loading historical data...
Loading historical data...
Loading historical data...
Loading historical data...
Loading historical data...
Loading historical data...
Loading historical data...

Documentation

Showing up to 5 results
|